N973SE ENBR-ENAL

Flight info

Callsign N973SE
Flight time 1h 7m
Altitude 23000
Route OLDAS DCT TUMIM
Aircraft C414/L-SBDFGRY/S

Departure

Time 2026-04-25 20:12
Airport Bergen Airport, Flesland (ENBR)

Arrival

Time 2026-04-25 21:19
Airport Ålesund Airport (ENAL)
Time Latitude Longitude Altitude Speed Heading
2026-04-25 19:44 60.29963 5.22657 165 ft 0 kts 285°
2026-04-25 20:03 60.29962 5.22649 165 ft 2 kts 253°
2026-04-25 20:03 60.29935 5.22642 165 ft 7 kts 175°
2026-04-25 20:03 60.29861 5.22636 164 ft 14 kts 199°
2026-04-25 20:03 60.29774 5.22492 163 ft 19 kts 233°
2026-04-25 20:04 60.29750 5.22326 163 ft 18 kts 264°
2026-04-25 20:04 60.29734 5.22097 163 ft 15 kts 263°
2026-04-25 20:04 60.29664 5.22026 163 ft 14 kts 168°
2026-04-25 20:04 60.29531 5.22077 162 ft 24 kts 169°
2026-04-25 20:05 60.29356 5.22134 160 ft 27 kts 172°
2026-04-25 20:05 60.29147 5.22197 158 ft 33 kts 171°
2026-04-25 20:05 60.28921 5.22279 156 ft 32 kts 172°
2026-04-25 20:05 60.28705 5.22344 155 ft 30 kts 170°
2026-04-25 20:06 60.28505 5.22406 153 ft 28 kts 171°
2026-04-25 20:06 60.28318 5.22469 151 ft 26 kts 170°
2026-04-25 20:06 60.28142 5.22533 150 ft 22 kts 169°
2026-04-25 20:06 60.28058 5.22449 149 ft 11 kts 262°
2026-04-25 20:07 60.28057 5.22437 148 ft 0 kts 264°
2026-04-25 20:10 60.28057 5.22426 148 ft 4 kts 264°
2026-04-25 20:10 60.28052 5.22324 146 ft 9 kts 267°
2026-04-25 20:10 60.28078 5.22244 147 ft 5 kts 344°
2026-04-25 20:11 60.28085 5.22242 147 ft 0 kts 351°
2026-04-25 20:11 60.28096 5.22238 147 ft 8 kts 351°
2026-04-25 20:11 60.28295 5.22170 152 ft 57 kts 351°
2026-04-25 20:11 60.28823 5.22006 260 ft 87 kts 349°
2026-04-25 20:12 60.29442 5.21821 537 ft 95 kts 350°
2026-04-25 20:12 60.30129 5.21661 931 ft 104 kts 352°
2026-04-25 20:12 60.30837 5.21499 1534 ft 100 kts 353°
2026-04-25 20:12 60.31297 5.21378 1900 ft 100 kts 352°
2026-04-25 20:13 60.32224 5.21112 2560 ft 101 kts 352°
2026-04-25 20:13 60.32924 5.20888 2992 ft 102 kts 353°
2026-04-25 20:13 60.33628 5.20649 3404 ft 103 kts 352°
2026-04-25 20:13 60.34336 5.20409 3828 ft 103 kts 352°
2026-04-25 20:14 60.35046 5.20167 4269 ft 104 kts 352°
2026-04-25 20:14 60.35762 5.19935 4711 ft 104 kts 352°
2026-04-25 20:14 60.36480 5.19707 5141 ft 105 kts 352°
2026-04-25 20:14 60.37201 5.19488 5551 ft 108 kts 352°
2026-04-25 20:15 60.38006 5.19251 5726 ft 126 kts 352°
2026-04-25 20:15 60.38930 5.18986 5889 ft 140 kts 352°
2026-04-25 20:15 60.39928 5.18708 6047 ft 149 kts 352°
2026-04-25 20:15 60.40971 5.18421 6200 ft 154 kts 353°
2026-04-25 20:16 60.42045 5.18127 6366 ft 157 kts 352°
2026-04-25 20:16 60.43128 5.17774 6524 ft 159 kts 346°
2026-04-25 20:16 60.44188 5.17095 6679 ft 160 kts 345°
2026-04-25 20:16 60.45270 5.16546 6832 ft 161 kts 348°
2026-04-25 20:17 60.46374 5.16104 6984 ft 162 kts 350°
2026-04-25 20:17 60.47485 5.15699 7140 ft 163 kts 350°
2026-04-25 20:17 60.48601 5.15310 7288 ft 162 kts 351°
2026-04-25 20:17 60.49722 5.15092 7440 ft 162 kts 358°
2026-04-25 20:18 60.50853 5.15159 7598 ft 162 kts 359°
2026-04-25 20:18 60.51982 5.15194 7749 ft 162 kts 359°
2026-04-25 20:18 60.53108 5.15230 7901 ft 161 kts 360°
2026-04-25 20:18 60.54210 5.15279 8088 ft 159 kts 359°
2026-04-25 20:19 60.55303 5.15316 8348 ft 154 kts 359°
2026-04-25 20:19 60.56397 5.15345 8631 ft 152 kts 358°
2026-04-25 20:19 60.57437 5.15385 8886 ft 150 kts 359°
2026-04-25 20:19 60.58477 5.15425 9150 ft 149 kts 358°
2026-04-25 20:20 60.59514 5.15454 9416 ft 148 kts 357°
2026-04-25 20:20 60.60538 5.15465 9679 ft 146 kts 358°
2026-04-25 20:20 60.61550 5.15489 9958 ft 145 kts 358°
2026-04-25 20:20 60.62547 5.15527 10220 ft 143 kts 358°
2026-04-25 20:21 60.63545 5.15565 10476 ft 143 kts 357°
2026-04-25 20:21 60.64540 5.15603 10719 ft 143 kts 357°
2026-04-25 20:21 60.65533 5.15640 10973 ft 143 kts 357°
2026-04-25 20:21 60.66524 5.15681 11218 ft 142 kts 356°
2026-04-25 20:22 60.67508 5.15714 11476 ft 141 kts 356°
2026-04-25 20:22 60.67840 5.15725 11561 ft 141 kts 356°
2026-04-25 20:22 60.69469 5.15780 11983 ft 140 kts 356°
2026-04-25 20:22 60.70440 5.15814 12243 ft 139 kts 356°
2026-04-25 20:23 60.71407 5.15854 12511 ft 139 kts 356°
2026-04-25 20:23 60.72372 5.15885 12771 ft 138 kts 355°
2026-04-25 20:23 60.73345 5.15915 12971 ft 141 kts 355°
2026-04-25 20:23 60.74331 5.15949 13201 ft 141 kts 355°
2026-04-25 20:24 60.75316 5.15985 13427 ft 142 kts 355°
2026-04-25 20:24 60.76294 5.16022 13687 ft 140 kts 355°
2026-04-25 20:24 60.77274 5.16058 13957 ft 140 kts 355°
2026-04-25 20:24 60.78248 5.16093 14176 ft 140 kts 355°
2026-04-25 20:25 60.79223 5.16128 14377 ft 140 kts 355°
2026-04-25 20:25 60.80196 5.16162 14591 ft 140 kts 355°
2026-04-25 20:25 60.81166 5.16197 14798 ft 139 kts 354°
2026-04-25 20:25 60.82134 5.16231 15001 ft 139 kts 354°
2026-04-25 20:26 60.83101 5.16266 15213 ft 139 kts 354°
2026-04-25 20:26 60.84066 5.16300 15430 ft 139 kts 354°
2026-04-25 20:26 60.85027 5.16336 15634 ft 138 kts 354°
2026-04-25 20:26 60.85990 5.16369 15858 ft 138 kts 354°
2026-04-25 20:27 60.86951 5.16402 16055 ft 138 kts 354°
2026-04-25 20:27 60.87914 5.16436 16261 ft 138 kts 354°
2026-04-25 20:27 60.88875 5.16472 16465 ft 138 kts 354°
2026-04-25 20:27 60.89838 5.16506 16670 ft 138 kts 354°
2026-04-25 20:28 60.90799 5.16542 16872 ft 138 kts 354°
2026-04-25 20:28 60.91759 5.16576 17079 ft 138 kts 354°
2026-04-25 20:28 60.92731 5.16609 17183 ft 144 kts 354°
2026-04-25 20:28 60.93754 5.16639 17183 ft 149 kts 354°
2026-04-25 20:29 60.94808 5.16683 17205 ft 154 kts 354°
2026-04-25 20:29 60.95900 5.16717 17201 ft 159 kts 354°
2026-04-25 20:29 60.97019 5.16756 17209 ft 162 kts 354°
2026-04-25 20:29 60.98150 5.16799 17201 ft 163 kts 354°
2026-04-25 20:30 60.99288 5.16842 17200 ft 164 kts 355°
2026-04-25 20:30 61.00422 5.16888 17195 ft 163 kts 356°
2026-04-25 20:30 61.01565 5.16935 17197 ft 161 kts 355°
2026-04-25 20:30 61.02682 5.16977 17215 ft 160 kts 354°
2026-04-25 20:31 61.03787 5.17020 17217 ft 161 kts 355°
2026-04-25 20:31 61.04912 5.17060 17227 ft 162 kts 354°
2026-04-25 20:31 61.06049 5.17094 17221 ft 164 kts 354°
2026-04-25 20:31 61.07198 5.17375 17220 ft 173 kts
2026-04-25 20:32 61.08298 5.18600 17214 ft 182 kts 18°
2026-04-25 20:32 61.09390 5.19891 17210 ft 180 kts 16°
2026-04-25 20:32 61.10489 5.21114 17211 ft 179 kts 15°
2026-04-25 20:32 61.11588 5.22323 17214 ft 179 kts 15°
2026-04-25 20:33 61.12694 5.23541 17214 ft 180 kts 15°
2026-04-25 20:33 61.13790 5.24762 17209 ft 179 kts 15°
2026-04-25 20:33 61.14885 5.25992 17212 ft 179 kts 16°
2026-04-25 20:33 61.15254 5.26407 17215 ft 179 kts 16°
2026-04-25 20:34 61.17081 5.28462 17225 ft 181 kts 16°
2026-04-25 20:34 61.18205 5.29732 17209 ft 181 kts 16°
2026-04-25 20:34 61.19291 5.30965 17201 ft 180 kts 16°
2026-04-25 20:34 61.20385 5.32215 17207 ft 178 kts 16°
2026-04-25 20:35 61.21472 5.33449 17213 ft 179 kts 15°
2026-04-25 20:35 61.22563 5.34686 17206 ft 179 kts 15°
2026-04-25 20:35 61.23653 5.35925 17180 ft 177 kts 15°
2026-04-25 20:35 61.24728 5.37157 17201 ft 177 kts 15°
2026-04-25 20:36 61.25816 5.38386 17201 ft 179 kts 16°
2026-04-25 20:36 61.26908 5.39627 17195 ft 179 kts 16°
2026-04-25 20:36 61.28001 5.40876 17188 ft 179 kts 16°
2026-04-25 20:36 61.29085 5.42119 17199 ft 178 kts 16°
2026-04-25 20:37 61.30172 5.43361 17200 ft 178 kts 15°
2026-04-25 20:37 61.31264 5.44605 17202 ft 179 kts 15°
2026-04-25 20:37 61.32360 5.45854 17189 ft 179 kts 16°
2026-04-25 20:37 61.33443 5.47102 17177 ft 176 kts 16°
2026-04-25 20:38 61.34513 5.48339 17187 ft 176 kts 16°
2026-04-25 20:38 61.35224 5.49155 17186 ft 176 kts 15°
2026-04-25 20:38 61.36311 5.50398 17202 ft 177 kts 15°
2026-04-25 20:38 61.37383 5.51619 17198 ft 179 kts 15°
2026-04-25 20:39 61.38473 5.52868 17150 ft 178 kts 16°
2026-04-25 20:39 61.39547 5.54112 17171 ft 176 kts 16°
2026-04-25 20:39 61.40620 5.55350 17171 ft 176 kts 15°
2026-04-25 20:39 61.41349 5.56191 17176 ft 177 kts 15°
2026-04-25 20:40 61.42779 5.57833 17196 ft 178 kts 15°
2026-04-25 20:40 61.43869 5.59087 17211 ft 180 kts 16°
2026-04-25 20:40 61.44972 5.60357 17196 ft 180 kts 16°
2026-04-25 20:40 61.46074 5.61630 17199 ft 181 kts 16°
2026-04-25 20:41 61.47176 5.62909 17190 ft 181 kts 16°
2026-04-25 20:41 61.48269 5.64186 17189 ft 179 kts 16°
2026-04-25 20:41 61.49353 5.65451 17145 ft 176 kts 16°
2026-04-25 20:41 61.50410 5.66698 17133 ft 173 kts 16°
2026-04-25 20:42 61.51438 5.67916 17131 ft 170 kts 15°
2026-04-25 20:42 61.52475 5.69114 17130 ft 169 kts 15°
2026-04-25 20:42 61.53509 5.70296 17171 ft 170 kts 15°
2026-04-25 20:42 61.54554 5.71495 17185 ft 172 kts 15°
2026-04-25 20:43 61.55610 5.72709 17192 ft 174 kts 15°
2026-04-25 20:43 61.56673 5.73940 17198 ft 175 kts 15°
2026-04-25 20:43 61.57744 5.75183 17202 ft 177 kts 15°
2026-04-25 20:43 61.58814 5.76435 17192 ft 175 kts 16°
2026-04-25 20:44 61.59875 5.77684 17201 ft 174 kts 15°
2026-04-25 20:44 61.60927 5.78920 17153 ft 172 kts 16°
2026-04-25 20:44 61.61973 5.80147 17186 ft 173 kts 15°
2026-04-25 20:44 61.63035 5.81380 17207 ft 176 kts 15°
2026-04-25 20:45 61.64116 5.82636 17217 ft 179 kts 15°
2026-04-25 20:45 61.65201 5.83910 17216 ft 179 kts 16°
2026-04-25 20:45 61.66281 5.85184 17198 ft 176 kts 16°
2026-04-25 20:45 61.67351 5.86451 17214 ft 177 kts 16°
2026-04-25 20:46 61.68423 5.87716 17224 ft 177 kts 15°
2026-04-25 20:46 61.69500 5.88978 17219 ft 177 kts 15°
2026-04-25 20:46 61.70588 5.90253 17221 ft 180 kts 16°
2026-04-25 20:46 61.71664 5.91526 17179 ft 174 kts 15°
2026-04-25 20:47 61.72714 5.92807 17209 ft 178 kts 20°
2026-04-25 20:47 61.73516 5.95103 17222 ft 218 kts 55°
2026-04-25 20:47 61.73426 5.98579 17202 ft 262 kts 99°
2026-04-25 20:47 61.72232 6.01673 17213 ft 286 kts 142°
2026-04-25 20:48 61.70362 6.02928 17206 ft 283 kts 186°
2026-04-25 20:48 61.68603 6.01910 17198 ft 253 kts 227°
2026-04-25 20:48 61.67436 5.99464 17198 ft 230 kts 248°
2026-04-25 20:48 61.66446 5.96846 17196 ft 220 kts 255°
2026-04-25 20:49 61.66045 5.94083 17213 ft 181 kts 289°
2026-04-25 20:49 61.66450 5.91816 17238 ft 161 kts 316°
2026-04-25 20:49 61.67306 5.90451 17220 ft 154 kts 339°
2026-04-25 20:49 61.68390 5.90383 17212 ft 163 kts
2026-04-25 20:50 61.69496 5.90932 17207 ft 163 kts
2026-04-25 20:50 61.70602 5.91510 17222 ft 165 kts
2026-04-25 20:50 61.71723 5.92101 17214 ft 166 kts
2026-04-25 20:50 61.72844 5.92756 17217 ft 172 kts 12°
2026-04-25 20:51 61.73760 5.94686 17234 ft 213 kts 49°
2026-04-25 20:51 61.73873 5.98116 17226 ft 262 kts 90°
2026-04-25 20:51 61.72887 6.01551 17207 ft 287 kts 129°
2026-04-25 20:51 61.71325 6.04209 17200 ft 288 kts 139°
2026-04-25 20:52 61.69738 6.06775 17194 ft 287 kts 136°
2026-04-25 20:52 61.68670 6.08499 17180 ft 286 kts 143°
2026-04-25 20:52 61.66191 6.10371 17205 ft 287 kts 179°
2026-04-25 20:52 61.64255 6.10026 17224 ft 274 kts 206°
2026-04-25 20:53 61.62604 6.08369 17206 ft 253 kts 231°
2026-04-25 20:53 61.61432 6.05890 17212 ft 229 kts 252°
2026-04-25 20:53 61.60752 6.03059 17214 ft 207 kts 270°
2026-04-25 20:53 61.60509 6.00206 17225 ft 192 kts 284°
2026-04-25 20:54 61.60622 5.97531 17195 ft 177 kts 297°
2026-04-25 20:54 61.61011 5.95190 17166 ft 163 kts 308°
2026-04-25 20:54 61.61597 5.93245 17198 ft 154 kts 317°
2026-04-25 20:54 61.62330 5.91685 17197 ft 146 kts 326°
2026-04-25 20:55 61.63172 5.90511 17214 ft 145 kts 334°
2026-04-25 20:55 61.64107 5.89713 17231 ft 147 kts 342°
2026-04-25 20:55 61.65123 5.89313 17214 ft 150 kts 350°
2026-04-25 20:55 61.66177 5.89369 17217 ft 154 kts 359°
2026-04-25 20:56 61.67237 5.89863 17215 ft 156 kts
2026-04-25 20:56 61.68285 5.90404 17210 ft 154 kts
2026-04-25 20:56 61.69325 5.90929 17213 ft 153 kts
2026-04-25 20:56 61.70358 5.91455 17226 ft 153 kts
2026-04-25 20:57 61.71397 5.91975 17223 ft 154 kts
2026-04-25 20:57 61.72441 5.92415 17243 ft 150 kts 356°
2026-04-25 20:57 61.73450 5.92380 17383 ft 143 kts 349°
2026-04-25 20:57 61.74479 5.92185 17134 ft 155 kts 350°
2026-04-25 20:58 61.75575 5.91968 16859 ft 161 kts 351°
2026-04-25 20:58 61.76695 5.91753 16585 ft 161 kts 351°
2026-04-25 20:58 61.77803 5.91542 16334 ft 159 kts 350°
2026-04-25 20:58 61.78916 5.91334 16140 ft 162 kts 350°
2026-04-25 20:59 61.80038 5.91117 15873 ft 161 kts 350°
2026-04-25 20:59 61.81146 5.90899 15594 ft 159 kts 351°
2026-04-25 20:59 61.82250 5.90682 15351 ft 160 kts 350°
2026-04-25 20:59 61.83361 5.90464 15088 ft 160 kts 350°
2026-04-25 21:00 61.84473 5.90247 14846 ft 161 kts 350°
2026-04-25 21:00 61.84836 5.90174 14791 ft 163 kts 350°
2026-04-25 21:00 61.87895 5.89581 14204 ft 165 kts 350°
2026-04-25 21:01 61.89038 5.89360 13928 ft 165 kts 351°
2026-04-25 21:01 61.90185 5.89138 13689 ft 167 kts 351°
2026-04-25 21:01 61.91344 5.88909 13404 ft 167 kts 351°
2026-04-25 21:01 61.92501 5.88683 13124 ft 167 kts 351°
2026-04-25 21:02 61.93656 5.88458 12857 ft 166 kts 351°
2026-04-25 21:02 61.94793 5.88234 12614 ft 167 kts 351°
2026-04-25 21:02 61.95947 5.88009 12341 ft 166 kts 352°
2026-04-25 21:02 61.97099 5.87785 12080 ft 166 kts 352°
2026-04-25 21:03 61.98247 5.87560 11828 ft 167 kts 352°
2026-04-25 21:03 61.99411 5.87335 11593 ft 169 kts 352°
2026-04-25 21:03 62.00585 5.87099 11348 ft 170 kts 352°
2026-04-25 21:03 62.01775 5.86861 11101 ft 172 kts 352°
2026-04-25 21:04 62.02971 5.86626 10834 ft 172 kts 353°
2026-04-25 21:04 62.04161 5.86394 10570 ft 172 kts 353°
2026-04-25 21:04 62.05349 5.86164 10327 ft 172 kts 353°
2026-04-25 21:04 62.06541 5.85929 10060 ft 171 kts 353°
2026-04-25 21:05 62.07738 5.85685 9798 ft 173 kts 353°
2026-04-25 21:05 62.08939 5.85452 9514 ft 174 kts 353°
2026-04-25 21:05 62.10145 5.85215 9248 ft 175 kts 353°
2026-04-25 21:05 62.11359 5.84975 8997 ft 177 kts 353°
2026-04-25 21:06 62.12587 5.84731 8692 ft 177 kts 353°
2026-04-25 21:06 62.13810 5.84490 8429 ft 177 kts 354°
2026-04-25 21:06 62.15044 5.84246 8187 ft 179 kts 354°
2026-04-25 21:06 62.15882 5.84081 7986 ft 179 kts 353°
2026-04-25 21:07 62.17528 5.83753 7667 ft 180 kts 354°
2026-04-25 21:07 62.18785 5.83506 7401 ft 182 kts 354°
2026-04-25 21:07 62.20051 5.83251 7145 ft 183 kts 354°
2026-04-25 21:07 62.21316 5.82997 6876 ft 183 kts 354°
2026-04-25 21:08 62.22589 5.82744 6614 ft 184 kts 354°
2026-04-25 21:08 62.23864 5.82490 6337 ft 184 kts 354°
2026-04-25 21:08 62.25140 5.82235 6062 ft 184 kts 354°
2026-04-25 21:08 62.26414 5.81982 5784 ft 184 kts 354°
2026-04-25 21:09 62.28953 5.81473 5295 ft 181 kts 354°
2026-04-25 21:09 62.30179 5.81228 5264 ft 173 kts 354°
2026-04-25 21:09 62.31341 5.80993 5250 ft 167 kts 354°
2026-04-25 21:10 62.32491 5.80764 5250 ft 165 kts 354°
2026-04-25 21:10 62.33631 5.80532 5240 ft 164 kts 354°
2026-04-25 21:10 62.34765 5.80303 5233 ft 163 kts 354°
2026-04-25 21:10 62.35913 5.80047 5096 ft 168 kts 351°
2026-04-25 21:11 62.37021 5.79246 4961 ft 170 kts 333°
2026-04-25 21:11 62.38061 5.78050 4828 ft 170 kts 335°
2026-04-25 21:11 62.39131 5.76985 4688 ft 169 kts 336°
2026-04-25 21:11 62.40203 5.75923 4552 ft 169 kts 336°
2026-04-25 21:12 62.41269 5.74845 4416 ft 169 kts 336°
2026-04-25 21:12 62.42331 5.73753 4278 ft 169 kts 335°
2026-04-25 21:12 62.43389 5.72660 4148 ft 168 kts 335°
2026-04-25 21:12 62.43743 5.72293 4102 ft 168 kts 335°
2026-04-25 21:13 62.45532 5.70929 3878 ft 161 kts 357°
2026-04-25 21:13 62.46614 5.71383 3744 ft 160 kts 21°
2026-04-25 21:13 62.47514 5.72799 3615 ft 163 kts 45°
2026-04-25 21:13 62.48080 5.74947 3484 ft 166 kts 62°
2026-04-25 21:14 62.48572 5.77190 3354 ft 165 kts 58°
2026-04-25 21:14 62.49082 5.79393 3290 ft 161 kts 59°
2026-04-25 21:14 62.49557 5.81531 3314 ft 155 kts 60°
2026-04-25 21:14 62.50028 5.83655 3173 ft 161 kts 60°
2026-04-25 21:15 62.50526 5.85905 2903 ft 169 kts 60°
2026-04-25 21:15 62.51036 5.88226 2620 ft 173 kts 60°
2026-04-25 21:15 62.51557 5.90580 2327 ft 174 kts 60°
2026-04-25 21:15 62.52072 5.92944 2038 ft 169 kts 60°
2026-04-25 21:16 62.52527 5.95051 1786 ft 141 kts 61°
2026-04-25 21:16 62.52900 5.96757 1565 ft 111 kts 57°
2026-04-25 21:16 62.53121 5.97719 1447 ft 105 kts 57°
2026-04-25 21:16 62.53439 5.99107 1281 ft 101 kts 57°
2026-04-25 21:17 62.53733 6.00457 1109 ft 98 kts 58°
2026-04-25 21:17 62.54020 6.01786 945 ft 98 kts 57°
2026-04-25 21:17 62.54315 6.03115 774 ft 98 kts 58°
2026-04-25 21:17 62.54588 6.04517 548 ft 103 kts 63°
2026-04-25 21:18 62.54872 6.05925 368 ft 100 kts 54°
2026-04-25 21:18 62.55193 6.07252 217 ft 97 kts 54°
2026-04-25 21:18 62.55499 6.08548 81 ft 95 kts 53°
2026-04-25 21:18 62.55766 6.09755 48 ft 77 kts 58°
2026-04-25 21:19 62.55967 6.10637 66 ft 55 kts 66°
2026-04-25 21:19 62.56076 6.11172 72 ft 24 kts 50°
2026-04-25 21:19 62.56077 6.11368 70 ft 7 kts 158°
2026-04-25 21:19 62.56022 6.11415 74 ft 1 kts 158°
2026-04-25 21:20 62.56015 6.11422 74 ft 4 kts 158°
2026-04-25 21:20 62.55972 6.11362 69 ft 11 kts 222°
2026-04-25 21:21 62.55924 6.11246 74 ft 10 kts 233°
2026-04-25 21:21 62.55885 6.11134 68 ft 9 kts 224°
2026-04-25 21:21 62.55838 6.11061 72 ft 1 kts 215°